Other Public Products
Issued by NWS Grand Forks, ND

Home | Current Version | Previous Version | Text Only | Print | Product List | Glossary Off
Versions: 1 2 3 4 5 6 7 8 9 10 11 12 13 14 15 16 17 18 19 20 21 22 23 24 25 26 27 28 29 30 31 32 33 34 35 36 37 38 39 40 41 42 43 44 45 46 47 48 49 50

000
FPUS83 KFGF 241831
OPUFGF
NATIONAL WEATHER SERVICE EASTERN NORTH DAKOTA/GRAND FORKS ND
100 PM CDT SUN MAY 24 2015

 **SATELLITE DATA USED TO AUGMENT SKY COVER AT AUTOMATED STATIONS**
 *****  WEATHER ACROSS EASTERN NORTH DAKOTA  *****

CITY           SKY/WX    TMP DP  RH WIND       PRES   REMARKS
GRAND FORKS    PTSUNNY   74  48  39 SE10      30.00F
6HR MIN TEMP:  50; 6HR MAX TEMP:  74;

GRAND FORKS AF PTSUNNY   73  49  42 E5        30.00F
GRAND CITY NWS   N/A     72 N/A N/A SE7         N/A
BUXTON           N/A     72  49  43 E6G17       N/A
DEVILS LAKE    PTSUNNY   72  46  40 SE8       29.99F
6HR MIN TEMP:  52; 6HR MAX TEMP:  72;

FARGO          CLOUDY    68  49  50 E13       29.99F
6HR MIN TEMP:  55; 6HR MAX TEMP:  68;

WAHPETON ARPT  CLOUDY    64  46  52 E9        29.98S
$$

 *****  WEATHER ACROSS CENTRAL AND WESTERN NORTH DAKOTA  *****

CITY           SKY/WX    TMP DP  RH WIND       PRES   REMARKS
JAMESTOWN      CLOUDY    68  49  50 E13G22    29.98F
6HR MIN TEMP:  54; 6HR MAX TEMP:  69;

BISMARCK       CLOUDY    67  50  54 E13       29.99F
6HR MIN TEMP:  54; 6HR MAX TEMP:  68;

MINOT          MOSUNNY   72  45  37 E10G17    29.99F
6HR MIN TEMP:  51; 6HR MAX TEMP:  72;

MINOT AFB      MOSUNNY   75  46  35 E13       29.98F
6HR MIN TEMP:  47; 6HR MAX TEMP:  75;

GARRISON         N/A     68  49  50 S7        30.00F
6HR MIN TEMP:  54; 6HR MAX TEMP:  68;

WILLISTON      CLOUDY    72  43  35 E13       30.00F
6HR MIN TEMP:  46; 6HR MAX TEMP:  72;

DICKINSON      CLOUDY    62  50  64 E13       29.99F
6HR MIN TEMP:  49; 6HR MAX TEMP:  63; 6HR PCP: TRACE;

HETTINGER      LGT RAIN  58  51  78 E14       30.00S
6HR MIN TEMP:  50; 6HR MAX TEMP:  57; 6HR PCP: TRACE;

$$

 *****  OTHER OBSERVATIONS NORTHEAST NORTH DAKOTA  *****

CITY           SKY/WX    TMP DP  RH WIND       PRES   REMARKS
WALHALLA         N/A     75  41  29 E6        30.00F
LANGDON        FAIR      77  41  27 E13G18    30.01F
CAVALIER       FAIR      75  41  29 SE5       29.99F
GRAFTON        FAIR      73  48  40 VRB6G13   30.00F
CANDO          FAIR      75  37  25 E10       30.00F
FORT TOTTEN    NOT AVBL
ROLLA            N/A     73  36  25 NE7       30.01F
RUGBY          NOT AVBL
 ***** THE ABOVE OBSERVATIONS ARE NON NWS ARE NOT QUALITY
        CONTROLLED AND MAY MIS-REPORT RAIN FOR SNOW...
$$

 *****  OTHER OBSERVATIONS SOUTHEAST NORTH DAKOTA *****

CITY           SKY/WX    TMP DP  RH WIND       PRES   REMARKS
COOPERSTOWN    NOT AVBL
VALLEY CITY    FAIR      68  46  45 E13G28    29.98F
OAKES            N/A     66  54  63 E15       29.96F
GWINNER        NOT AVBL
SHEYENNE NWR     N/A     69  51  51 E15       29.95S
BUFFALO        NOT AVBL
WYNDMERE         N/A     66  50  55 E12         N/A
 ***** THE ABOVE OBSERVATIONS ARE NON NWS ARE NOT QUALITY
       CONTROLLED AND MAY MIS-REPORT RAIN FOR SNOW...
$$

  *****  WEATHER ACROSS NORTHERN MINNESOTA  *****

CITY           SKY/WX    TMP DP  RH WIND       PRES   REMARKS
FLAG ISLAND    SUNNY     61  52  72 SE7       30.00F
WARROAD        SUNNY     75  48  38 E9        30.01F
ROSEAU         SUNNY     77  43  29 CALM      30.00F
HALLOCK        SUNNY     77  37  24 E10       29.99F
THF RVR FALLS  PTSUNNY   73  45  35 SE9       30.02S
6HR MIN TEMP:  52; 6HR MAX TEMP:  72;

HALSTAD          N/A     71  45  39 SE12        N/A
FOSSTON        CLOUDY    72  46  40 E5        30.03S
BAUDETTE       MOSUNNY   76  40  27 E5        30.02F
6HR MIN TEMP:  50; 6HR MAX TEMP:  76;

WASKISH        PTSUNNY   70  52  52 CALM      30.02F
CROOKSTON      PTSUNNY   73  46  38 E8        30.00F
$$
  *****  WEATHER ACROSS CENTRAL AND WEST MINNESOTA  *****

CITY           SKY/WX    TMP DP  RH WIND       PRES   REMARKS
BEMIDJI        CLOUDY    68  46  44 E9        30.03F
PARK RAPIDS    CLOUDY    68  46  45 E12       30.02F
6HR MIN TEMP:  57; 6HR MAX TEMP:  68; 6HR PCP: TRACE;

WADENA         CLOUDY    66  50  55 E9        30.00F
DETROIT LAKES  CLOUDY    68  46  45 E13       30.01F
MOORHEAD       CLOUDY    70  50  49 E14       29.99F
FERGUS FALLS   CLOUDY    66  50  55 E9        29.98S
ELBOW LAKE     LGT RAIN  65  52  62 E12       29.98S
6HR MIN TEMP:  60; 6HR MAX TEMP:  66;

MORRIS MN      DRIZZLE   66  55  68 E17       29.96F
STAPLES        CLOUDY    68  48  49 SE7       30.00F
WHEATON        CLOUDY    64  52  63 E8        29.98F
$$
  *****  WEATHER ELSEWHERE ACROSS MINNESOTA  *****

CITY           SKY/WX    TMP DP  RH WIND       PRES   REMARKS
DULUTH         CLOUDY    68  42  38 SE8       30.06F
6HR MIN TEMP:  58; 6HR MAX TEMP:  69; 6HR PCP: TRACE;

INTRNTL FALLS  MOSUNNY   76  39  26 CALM      30.02F
6HR MIN TEMP:  50; 6HR MAX TEMP:  77;

ELY            PTSUNNY   75  37  25 SE6       30.04F
CLOQUET        CLOUDY    66  43  42 E6        30.05F
BRAINERD       CLOUDY    66  50  56 E9        30.02F
6HR MIN TEMP:  57; 6HR MAX TEMP:  67; 6HR PCP: TRACE;

HIBBING        CLOUDY    72  44  36 S7        30.04F
6HR MIN TEMP:  47; 6HR MAX TEMP:  73;

ALEXANDRIA     CLOUDY    63  52  67 E13       30.00F
6HR MIN TEMP:  59; 6HR MAX TEMP:  64;

SAINT CLOUD    LGT RAIN  62  56  80 NE6       30.00F
6HR MIN TEMP:  58; 6HR MAX TEMP:  62; 6HR PCP:  0.02;

MINNEAPOLIS    LGT RAIN  63  57  81 SE16      30.00F
6HR MIN TEMP:  62; 6HR MAX TEMP:  64; 6HR PCP:  0.05;

$$

  *****  WEATHER ACROSS SOUTH DAKOTA  *****

CITY           SKY/WX    TMP DP  RH WIND       PRES   REMARKS
SIOUX FALLS    LGT RAIN  62  59  90 E10       29.87F FOG
6HR MIN TEMP:  59; 6HR MAX TEMP:  61; 6HR PCP:  0.04;

BROOKINGS      CLOUDY    61  57  88 E12       29.93S
WATERTOWN      LGT RAIN  59  56  89 E13       29.93F FOG
6HR MIN TEMP:  56; 6HR MAX TEMP:  60; 6HR PCP:  0.01;

HURON          CLOUDY    62  59  90 E12       29.90F
6HR MIN TEMP:  57; 6HR MAX TEMP:  62; 6HR PCP:  0.05;

SISSETON         N/A     63  55  75 E9        29.95F
ABERDEEN       CLOUDY    66  52  60 E12       29.94F
6HR MIN TEMP:  56; 6HR MAX TEMP:  67;

MITCHELL       LGT RAIN  62  60  93 E10       29.88F
PIERRE         CLOUDY    63  55  75 E13       29.89F
6HR MIN TEMP:  55; 6HR MAX TEMP:  64; 6HR PCP: TRACE;

MOBRIDGE       CLOUDY    67  50  54 E16       29.93S
RAPID CITY     RAIN      54  53  97 E13       29.92S FOG
6HR MIN TEMP:  52; 6HR MAX TEMP:  54; 6HR PCP:  0.63;

$$

  *****  SOME WEATHER IN NEARBY STATES *****

CITY           SKY/WX    TMP DP  RH WIND       PRES   REMARKS
GLASGOW MT     SUNNY     70  42  36 VRB3      30.01F
6HR MIN TEMP:  47; 6HR MAX TEMP:  70;

GREAT FALLS MT CLOUDY    56  45  66 E10       30.07F
6HR MIN TEMP:  42; 6HR MAX TEMP:  58;

CHEYENNE WY    PTSUNNY   55  38  52 E10       29.90F
6HR MIN TEMP:  37; 6HR MAX TEMP:  58;

SCOTTSBLUFF NE PTSUNNY   62  51  67 E6        29.87F
6HR MIN TEMP:  51; 6HR MAX TEMP:  63;

OMAHA NE       CLOUDY    67  62  84 SE5       29.83S FOG
6HR MIN TEMP:  61; 6HR MAX TEMP:  65; 6HR PCP:  0.01;

DES MOINES IA  CLOUDY    65  62  90 S12       29.87F
6HR MIN TEMP:  61; 6HR MAX TEMP:  65; 6HR PCP:  0.12;

DAVENPORT IA   LGT RAIN  65  61  87 E14       29.99F
6HR MIN TEMP:  59; 6HR MAX TEMP:  65; 6HR PCP:  0.30;

CHICAGO IL     CLOUDY    71  51  49 E10       30.09F
6HR MIN TEMP:  62; 6HR MAX TEMP:  72; 6HR PCP: TRACE;

EAU CLAIRE WI  LGT RAIN  61  56  83 SE7       30.05F
6HR MIN TEMP:  58; 6HR MAX TEMP:  67; 6HR PCP:  0.02;

LA CROSSE WI   RAIN      61  58  90 SE8       30.02F FOG
6HR MIN TEMP:  60; 6HR MAX TEMP:  62; 6HR PCP:  0.22;

$$

  *****  SOME NATIONAL WEATHER *****

CITY           SKY/WX    TMP DP  RH WIND       PRES   REMARKS



USA.gov is the U.S. government's official web portal to all federal, state and local government web resources and services.